AQI (101)

Current Conditions for Foresthill, CA. Sunny, Dry   
Visibility: 10 miles
Space WX Alerts: ALERT:  Geomagnetic K-index of 4 ( Latest Alert ) - Issue Time: 2018 Aug 20 1923 UTC

  Summary / Temperature 

Current Temperature
87.4°F
30.8°C
(24/hr Ago)
90.4°F
(Apparent temp)
85.4°F
Warm
Heat Index
84.0°F 

87.4°F/ 30.8°C
Noticeable discomfort

 Temp Rate:

 24/hr Difference:

 Avg Running Temp:

 Todays High:

 Todays Low:

 Y-days High:

 Y-days Low:

 Todays HeatIdx:

 Y-days HeatIdx:

 Evapotranspiration:

-0.3°F/hr 

-3°F

89.1°F

91.3°F 2:37pm

68.3°F 6:47am

91.8°F 1:37pm

70.6°F 5:53am

87.4°F 2:35pm

88.2°F 1:37pm

0.171 in

115' Above Ground

 Temperature:

 6'AGL VRS 115'AGL:

 Avg Running Temp:

 Humidity:

 Todays High:

 Todays Low:

 Y-days High:

 Y-days Low:

86.0°F 

-1.4°F

86.5°F

23% 

88.0°F 1:14pm

72.0°F 4:20am

90.0°F 11:57am

73.0°F 2:54am

Temp & Humidity Graphs

  Wind 

Wind Speed

 9.0 mph

Gusting to

 13.0 mph

Wind from WSW

233°  SW

Gentle breeze

 Avg speed:

 Wind Run:

 Peak Gust:

  1.0 mph 

49.0 miles

  19.0 mph 2:56pm

  Almanac  

Moon age: 9 days,18 hours,59 minutes,75%

Waxing Gibbous
75%
Illuminated
9 days in cycle

 Moonrise:

 Moonset:

 Sunrise:

 Sunset:

 Solar Noon:

4:05pm

1:20am

6:22am

7:52pm

1:07pm

2min 17s less daylight tomorrow 

  Solar Radiation 

(Current Solar)
  708 W/m2 (82%)
(Todays High)
 881 W/m2@1:06pm
Feels like: 97.7°F in the sun

Rain

 Rain Today:

 Rain Rate (/hr):

 Rain last hour:

 Rain Yesterday:

 This Month:

 Season Total:

86 Days Since Last Rain Day

0.00 in

0.000 in

0.00 in

0.00 in

0.00 in

0.00 in

Updated Time

Updated: 8/20/18  3:29pm

(Updated  sec ago)

Humidity & Barometer

 Humidity:

 Wetbulb:

 Dew Point:

 Barometer:

22% 

65.6°F 

43.9°F 

29.815 inHg 

 Baro Trend:  Steady 
Northern Calif
Preparedness
Fire 
Level 

    UV Index  

(Current UV)
5.2  Medium
(Todays High) @ 1:06pm
7.9   High

National Weather Service Forecast

This
Afternoon
This Afternoon: Haze
Haze
Tonight

Tonight: Haze
Haze
Tuesday

Tuesday: Haze
Haze
Tuesday
Night
Tuesday Night: Haze then Clear
Haze then Clear
Wednesday

Wednesday: Sunny
Sunny
Wednesday
Night
Wednesday Night: Clear
Clear
Hi 90 °F Lo 65 °F Hi 85 °F Lo 63 °F Hi 84 °F Lo 62 °F

Foresthill Probe 2 Stats  
Foresthill Probe 2: is located on Thomas Street
at 3000 feet. The main Foresthill Weather site
is located on Melody ln at the 2860 foot elevation

Calm
88.6°F
31.4°C
Temp Rate:
-0.5°F
2.0 mph
Gusting to
2.0 mph
(Humidity)
22%
Wind from WNW
294°  WNW
Updated: 20/08/18 - 15:25:08
 Todays High: 91.5°F 14:20
 Todays Low: 65.2°F 06:53
 Rain Today: 0.00 in
 Season Total: 0.00 in

Foresthill Wx: Monthly,Yearly, Highs and Lows 

Foresthill  
This Weather Data is coming from the main Foresthill
Weather site located on Melody ln at the 2860 foot
elevation
Not Foresthill Probe 2
Weather Data
Month
  High
Month
  Low
Year
High
Year
Low
Temp 93.9°F
8/10/18
63.0°F
8/6/18
93.9°F
8/10/18
21.9°F
2/23/18
Humidity 58%
8/7/18
14%
8/1/18
100%
1/8/18
12%
7/8/18
Heat Index 90.9°F
8/10/18
63.0°F
8/6/18
93.3°F
7/25/18
27.1°F
2/20/18
Wind Chill 93.9°F
8/10/18
62.0°F
8/6/18
93.9°F
8/10/18
9.2°F
2/23/18
Wind Gust 21 mph
8/5/18
0 mph
8/1/18
43 mph
3/1/18
0 mph
1/1/18
Barometer 30.03 in
8/18/18
29.81 in
8/14/18
30.55 in
1/27/18
29.60 in
6/16/18
ET 0.23 in
8/12/18
0.00 in
8/1/18
0.25 in
6/24/18
0.00 in
1/1/18
Dew Point 58.7°F
8/1/18
33.2°F
8/4/18
66.9°F
7/24/18
7.6°F
2/11/18
Pacific Satellite US Radar Satellite Imagery Sacramento,CA.  (click to enlarge)
NWS Weather Forecast - Summary
Updated: Monday, August 20, 2018 - 4:17am PDT
Current Interstate Highway Conditions for I-80 & US-50

[I 80: IN THE SAN FRANCISCO BAY AREA - SOLANO CO]
no traffic restrictions are reported for this area.

[I 80: IN THE NORTHERN CALIFORNIA AREA & SIERRA NEVADA]
no traffic restrictions are reported for this area.

[US 50: IN THE SACRAMENTO VALLEY & THE LAKE TAHOE BASIN]
no traffic restrictions are reported for this area.
NWS Weather Forecast: This Afternoon and Tonight (Updated: Mon, 20-Aug-2018 2:27pm PDT)
This
Afternoon
This Afternoon: Haze
Haze

Hi 90 °F
NWS forecast: Haze. Sunny, with a high near 90. Southwest wind around 7 mph.
Tonight

Tonight: Haze
Haze

Lo 65 °F
NWS forecast: Haze. Clear, with a low around 65. Southeast wind 2 to 8 mph.
YR.NO 10 Day Weather forecast
Last update: 08/20/2018 @ 00:39
Next update: 08/20/2018 @ 13:00
Provided by: 22
      Temperature Precipitation Pressure Wind  
Today
08/20/2018
13:00 18:00 90°F   29.83 inHg Gentle breeze from southwest 9 mph
  18:00 00:00 84°F   29.81 inHg Light breeze from southwest 6 mph
    (Click to enlarge)
meteogram

    Forecast for next 9 days

      Temperature Precip Pressure Wind  
Tuesday
08/21/2018
00:00 06:00 61°F   29.86 inHg Light air from east-northeast 2 mph
  06:00 12:00 55°F   29.87 inHg Light air from east 3 mph
  12:00 18:00 81°F   29.93 inHg Light breeze from southwest 7 mph
  18:00 00:00 79°F   29.92 inHg Light breeze from southwest 5 mph
      Temperature Precip Pressure Wind  
Wednesday
08/22/2018
00:00 06:00 59°F   29.97 inHg Light air from east-northeast 2 mph
  06:00 12:00 54°F   29.96 inHg Light breeze from east-northeast 5 mph
  12:00 18:00 82°F   29.97 inHg Light breeze from southwest 6 mph
  17:00 23:00 82°F   29.92 inHg Light breeze from west-southwest 6 mph
  23:00 05:00 63°F   29.98 inHg Light air from east-southeast 1 mph
      Temperature Precip Pressure Wind  
Thursday
08/23/2018
05:00 11:00 54°F   29.97 inHg Light air from east-northeast 3 mph
  11:00 17:00 81°F   29.99 inHg Light breeze from west-southwest 5 mph
  17:00 23:00 81°F   29.93 inHg Light breeze from southwest 6 mph
  23:00 05:00 63°F   29.96 inHg Light air from east 2 mph
      Temperature Precip Pressure Wind  
Friday
08/24/2018
05:00 11:00 52°F   29.94 inHg Light air from east-northeast 3 mph
  11:00 17:00 79°F   29.94 inHg Light breeze from southwest 6 mph
  17:00 23:00 81°F   29.88 inHg Light breeze from southwest 6 mph
  23:00 05:00 61°F   29.92 inHg Light air from east 1 mph
      Temperature Precip Pressure Wind  
Saturday
08/25/2018
05:00 11:00 50°F   29.91 inHg Light breeze from east-northeast 6 mph
  11:00 17:00 82°F   29.92 inHg Light breeze from southwest 5 mph
  17:00 23:00 82°F   29.88 inHg Light breeze from west-southwest 6 mph
  23:00 05:00 59°F   29.92 inHg Light air from east-northeast 3 mph
      Temperature Precip Pressure Wind  
Sunday
08/26/2018
05:00 11:00 54°F   29.91 inHg Light breeze from east-northeast 6 mph
  11:00 17:00 82°F   29.94 inHg Light breeze from south-southwest 7 mph
  17:00 23:00 82°F   29.88 inHg Light breeze from south-southwest 7 mph
  23:00 05:00 63°F   29.93 inHg Light breeze from east-southeast 6 mph
      Temperature Precip Pressure Wind  
Monday
08/27/2018
05:00 11:00 57°F   29.91 inHg Light breeze from southeast 6 mph
  11:00 17:00 73°F   29.89 inHg Gentle breeze from south-southwest 10 mph
  17:00 23:00 72°F   29.82 inHg Gentle breeze from south-southwest 11 mph
  23:00 05:00 55°F   29.85 inHg Light breeze from south-southeast 5 mph
      Temperature Precip Pressure Wind  
Tuesday
08/28/2018
05:00 11:00 48°F   29.85 inHg Light breeze from south 5 mph
  11:00 17:00 61°F   29.90 inHg Gentle breeze from south-southwest 8 mph
  17:00 23:00 66°F   29.83 inHg Gentle breeze from south-southwest 9 mph
  23:00 05:00 52°F   29.88 inHg Light air from south-southeast 1 mph
      Temperature Precip Pressure Wind  
Wednesday
08/29/2018
05:00 11:00 52°F 0.04 in 29.86 inHg Calm from west-northwest 0 mph
  11:00 17:00 57°F 0.11 in 29.91 inHg Light air from southwest 3 mph

NOAA Local Storm Report
2 MILES EAST OF LA CROSSE   ( More )
DATE
08/17/2018
TIME
4:05 PM
COUNTY
LA CROSSE
STATE
WI
GEOGRAPHIC
43.82N 91.19W
SOURCE
NWS EMPLOYEE
HEAVY RAIN MEASURED AT 0.92 INCH
fell within 25 minutes.
How Close Are We To this Month's Temperature Record ?
Updated Monday, Aug 20, 2018- 3:25:01 PM

Current Temperature: 87.4°F

August's High: Temperature Record 97.8°F - Set on Sat, Aug 11, 2012 - 2:34:00 PM
We are currently 10.4°F Less than this Month's record High

August's Low: Temperature Record 57.5°F - Set on Sun, Aug 30, 2015 - 7:31:00 AM
We are currently 29.9°F More than this Month's record Low

Weather History For Monday, August 20, 2018


On this Day - In Weather History ...
Data courtesy of weatherforyou.com
powered by Cumulus v1.9.3 (1059)
Ambient Weather VWS v14.00
Top Contact Website Map Copyright © 2007 - 2018 Foresthillweather.com Never base important decisions on this or any weather information obtained from the Internet